Volver al catálogo

STARLINK-37712

ActivoComunicacionesSSO
NORAD 100109·PAYLOAD·🇺🇸 United States

Lanzado Jul 21, 2026 desde Vandenberg Space Force Base

Loading…

Próximos Pases (próximas 24 horas)

TLE

ActualizadoSource: Space-Track

Época: Sep 14, 2026, 13:38 UTC

1 A0109U 26166J   26257.56866764  .00190858  00000-0  12531-2 0  9996
2 A0109  97.2823 275.6871 0000753 132.8707 227.2621 15.75171406  8672

Sigue STARLINK-37712 en tiempo real con AllMySat

Download on the App Store